User: anonymous   Login
Location: Lac Lasalle
(46.0398°N, 74.1576°W)
Time: 15:20:01
(UTC-05:00)
Language:

nSIGHT-1 - Orbit

View from above orbital plane
View from above orbital plane
View from above satellite
View from above satellite

Ground track
Ground track

The orbit data is extracted from the following two-line orbital elements,

1 42726U 98067MF  19340.51497949  .00033912  00000-0  17583-3 0  9991
2 42726  51.6306 150.1361 0003729 146.7828 213.3409 15.80684723144744
Epoch (UTC): 06 December 2019 12:21:34
Eccentricity: 0.0003729
inclination: 51.6306°
perigee height: 326 km
apogee height: 331 km
right ascension of ascending node: 150.1361°
argument of perigee: 146.7828°
revolutions per day: 15.80684723
mean anomaly at epoch: 213.3409°
orbit number at epoch: 14474

The dashed part of the orbit path shows where the satellite is in the earth's shadow,  

DLR